Weather History for Quebec, QC

Change the Weather History Date:

Friday, June 14, 2013

  Actual Average Record
Temperature  
Mean Temperature 63 °F -  
Max Temperature 78 °F 69 °F 84 °F (2001)
Min Temperature 48 °F 50 °F 46 °F (1997)
Degree Days  
Heating Degree Days 2    
Growing Degree Days 13 (Base 50)    
Moisture  
Dew Point 45 °F    
Average Humidity 51    
Maximum Humidity 76    
Minimum Humidity 16    
Precipitation  
Precipitation 0.00 in - - ()
Sea Level Pressure  
Sea Level Pressure 29.73 in    
Wind  
Wind Speed 6 mph ()    
Max Wind Speed 15 mph    
Max Gust Speed 24 mph    
Visibility 15.0 miles    
Events      
Averages and records for this station are not official NWS values.
T = Trace of Precipitation, MM = Missing Value Source: Averaged Metar Reports

Daily Weather History Graph

Daily Weather History Graph

Search for Another Location

Airport:

Trip Planner

Search our weather history database for the weather conditions in past years. The results will help you decide how hot, cold, wet, or windy it might be!

Date:

Astronomy

Jun. 14, 2013 Rise Set
Actual Time 4:50 AM EDT 8:41 PM EDT
Civil Twilight 4:11 AM EDT 9:20 PM EDT
Nautical Twilight 3:17 AM EDT 10:14 PM EDT
Astronomical Twilight 1:59 AM EDT 11:33 PM EDT
Moon 10:41 AM EDT (6/14) 11:54 PM EDT (6/14)
Length of Visible Light 17h 09m
Length of Day
15h 50m
Waxing Crescent, 30% of the Moon is Illuminated
Jun 14
Waxing Crescent
Jun 16
First Quarter
Jun 23
Full
Jun 30
Last Quarter
Jul 8
New

Hourly Weather History & Observations

Time (EDT) Temp. Dew Point Humidity Pressure Visibility Wind Dir Wind Speed Gust Speed Precip Events Conditions
12:00 AM 57.2 °F 44.6 °F 63% 29.75 in 15.0 mi NNE 6.9 mph - N/A   Scattered Clouds
1:00 AM 55.4 °F 44.6 °F 67% 29.75 in 15.0 mi NNE 6.9 mph - N/A   Partly Cloudy
2:00 AM 50 °F 44 °F 73% 29.73 in - East 2.3 mph - -  
2:00 AM 53.6 °F 44.6 °F 72% 29.74 in 15.0 mi NE 4.6 mph - N/A   Partly Cloudy
3:00 AM 51.8 °F 44.6 °F 76% 29.72 in 15.0 mi NNE 6.9 mph - N/A   Partly Cloudy
4:00 AM 51.8 °F 44.6 °F 76% 29.73 in 15.0 mi NNE 8.1 mph - N/A   Clear
5:00 AM 51 °F 46 °F 76% 29.72 in - NNE 2.3 mph - -  
5:00 AM 51.8 °F 44.6 °F 76% 29.73 in 15.0 mi North 4.6 mph - N/A   Partly Cloudy
6:00 AM 51.8 °F 44.6 °F 76% 29.75 in 25.0 mi North 2.3 mph - N/A   Mostly Cloudy
7:00 AM 55.4 °F 46.4 °F 72% 29.75 in 25.0 mi West 4.6 mph - N/A   Mostly Cloudy
8:00 AM 58 °F 51 °F 71% 29.73 in - WSW 5.8 mph - -  
8:00 AM 59.0 °F 50.0 °F 72% 29.75 in 25.0 mi WSW 4.6 mph - N/A   Mostly Cloudy
9:00 AM 64.4 °F 50.0 °F 59% 29.75 in 25.0 mi SW 4.6 mph - N/A   Mostly Cloudy
10:00 AM 69.8 °F 53.6 °F 56% 29.74 in 25.0 mi SSW 4.6 mph - N/A   Mostly Cloudy
11:00 AM 72 °F 54 °F 43% 29.71 in - WSW 4.6 mph - -  
11:00 AM 71.6 °F 55.4 °F 57% 29.73 in 25.0 mi SW 9.2 mph - N/A   Mostly Cloudy
12:00 PM 75.2 °F 48.2 °F 38% 29.73 in 25.0 mi NNE 15.0 mph - N/A   Mostly Cloudy
1:00 PM 75.2 °F 48.2 °F 38% 29.71 in 30.0 mi NNW 9.2 mph - N/A   Scattered Clouds
2:00 PM 76 °F 52 °F 32% 29.68 in - NW 5.8 mph - -  
2:00 PM 77.0 °F 50.0 °F 39% 29.70 in 30.0 mi NW 11.5 mph - N/A   Scattered Clouds
3:00 PM 77.0 °F 50.0 °F 39% 29.69 in 30.0 mi NW 15.0 mph 20.7 mph N/A   Partly Cloudy
4:00 PM 77.0 °F 46.4 °F 34% 29.68 in 30.0 mi WNW 13.8 mph 21.9 mph N/A   Partly Cloudy
5:00 PM 77 °F 40 °F 16% 29.67 in - NW 13.8 mph - -  
5:00 PM 77.0 °F 42.8 °F 29% 29.69 in 30.0 mi NNW 12.7 mph 20.7 mph N/A   Partly Cloudy
6:00 PM 75.2 °F 39.2 °F 27% 29.70 in 30.0 mi NNW 15.0 mph 24.2 mph N/A   Partly Cloudy
7:00 PM 73.4 °F 37.4 °F 27% 29.73 in 30.0 mi NNW 13.8 mph 23.0 mph N/A   Partly Cloudy
8:00 PM 70 °F 34 °F 16% 29.74 in - NNW 8.1 mph - -  
8:00 PM 69.8 °F 33.8 °F 27% 29.75 in 30.0 mi North 13.8 mph - N/A   Partly Cloudy
9:00 PM 66.2 °F 35.6 °F 32% 29.77 in 30.0 mi NNW 9.2 mph - N/A   Clear
10:00 PM 60.8 °F 37.4 °F 42% 29.80 in 15.0 mi WNW 4.6 mph - N/A   Clear
11:00 PM 51 °F 43 °F 66% 29.78 in - West 5.8 mph - -  
11:00 PM 57.2 °F 39.2 °F 51% 29.80 in 15.0 mi WNW 5.8 mph - N/A   Clear